{"data":{"norad_id":67969,"epoch":"2026-05-25T00:03:02.678112Z","epoch_age_seconds":70756,"freshness":"FRESH","line1":"1 67969U 26038J   26145.00211433  .00023945  00000+0  74148-3 0  9997","line2":"2 67969  97.2836 155.0228 0001527  90.1436 269.9982 15.33453195 14936","mean_motion":15.33453195,"eccentricity":0.0001527,"inclination_deg":97.2836,"raan_deg":155.0228,"arg_perigee_deg":90.1436,"mean_anomaly_deg":269.9982,"bstar":0.00074148,"rev_number":1493,"period_min":93.905702808229,"perigee_km":464.47376579295,"apogee_km":466.56381827183,"semimajor_km":6843.6557920324,"source":"CELESTRAK","updated_at":"2026-05-25T13:38:21.774430Z"}}